Weather History for Kolkata, India

Change the Weather History Date:

Thursday, February 20, 2014

  Actual Average Record
Temperature  
Mean Temperature 68 °F -  
Max Temperature 80 °F 85 °F 89 °F (2003)
Min Temperature 56 °F 64 °F 56 °F (2014)
Cooling Degree Days 3    
Growing Degree Days 18 (Base 50)    
Moisture  
Dew Point 53 °F    
Average Humidity 63    
Maximum Humidity 94    
Minimum Humidity 22    
Precipitation  
Precipitation 0.00 in - - ()
Sea Level Pressure  
Sea Level Pressure 29.94 in    
Wind  
Wind Speed 2 mph ()    
Max Wind Speed 9 mph    
Max Gust Speed -    
Visibility 1.2 miles    
Events Fog    
Averages and records for this station are not official NWS values.
T = Trace of Precipitation, MM = Missing Value Source: Averaged Metar Reports

Daily Weather History Graph

Daily Weather History Graph

Search for Another Location

Airport:

Trip Planner

Search our weather history database for the weather conditions in past years. The results will help you decide how hot, cold, wet, or windy it might be!

Date:

Astronomy

Feb. 20, 2014 Rise Set
Actual Time 6:04 AM IST 5:35 PM IST
Civil Twilight 5:42 AM IST 5:58 PM IST
Nautical Twilight 5:15 AM IST 6:24 PM IST
Astronomical Twilight 4:49 AM IST 6:50 PM IST
Moon 10:17 PM IST (2/20) 9:07 AM IST (2/20)
Length of Visible Light 12h 15m
Length of Day
11h 30m
Waning Gibbous, 75% of the Moon is Illuminated
Feb 20
Waning Gibbous
Feb 22
Last Quarter
Mar 1
New
Mar 8
First Quarter
Mar 16
Full

Hourly Weather History & Observations

Time (IST) Temp. Dew Point Humidity Pressure Visibility Wind Dir Wind Speed Gust Speed Precip Events Conditions
12:20 AM 60.8 °F 55.4 °F 82% 29.95 in 1.2 mi Calm Calm - N/A   Mist
12:50 AM 59.0 °F 55.4 °F 88% 29.92 in 1.1 mi Calm Calm - N/A   Mist
1:20 AM 59.0 °F 55.4 °F 88% 29.92 in 1.1 mi Calm Calm - N/A   Mist
1:50 AM 57.2 °F 53.6 °F 88% 29.92 in 1.1 mi Calm Calm - N/A   Mist
2:20 AM 57.2 °F 53.6 °F 88% 29.92 in 1.1 mi Calm Calm - N/A   Mist
2:30 AM 60 °F 56 °F 84% 29.93 in 1 mi Calm Calm - -   Haze
2:50 AM 57.2 °F 53.6 °F 88% 29.92 in 1.1 mi Calm Calm - N/A   Mist
3:20 AM 57.2 °F 53.6 °F 88% 29.89 in 1.1 mi Calm Calm - N/A   Mist
3:50 AM 57.2 °F 53.6 °F 88% 29.92 in 1.1 mi Calm Calm - N/A   Mist
4:20 AM 57.2 °F 53.6 °F 88% 29.92 in 1.1 mi Calm Calm - N/A   Mist
4:50 AM 57.2 °F 53.6 °F 88% 29.92 in 1.1 mi Calm Calm - N/A   Mist
5:20 AM 57.2 °F 53.6 °F 88% 29.92 in 1.1 mi Calm Calm - N/A   Mist
5:30 AM 59 °F 56 °F 85% 29.94 in 1 mi Calm Calm - -   Haze
5:50 AM 57.2 °F 53.6 °F 88% 29.92 in 1.1 mi Calm Calm - N/A   Mist
6:20 AM 57.2 °F 55.4 °F 94% 29.92 in 0.6 mi Calm Calm - N/A Fog Shallow Fog
6:50 AM 59.0 °F 57.2 °F 94% 29.98 in 0.5 mi Calm Calm - N/A Fog Fog
7:20 AM 60.8 °F 59.0 °F 94% 29.98 in 0.5 mi Calm Calm - N/A Fog Fog
7:50 AM 62.6 °F 57.2 °F 82% 29.95 in 0.6 mi North 3.5 mph - N/A Fog Shallow Fog
8:20 AM 64.4 °F 55.4 °F 73% 29.98 in 0.7 mi North 5.8 mph - N/A   Mist
8:30 AM 68 °F 55 °F 55% 30.01 in 1 mi NW 2.3 mph - -   Haze
9:20 AM 69.8 °F 53.6 °F 56% 30.01 in 1.2 mi North 6.9 mph - N/A   Haze
9:50 AM 71.6 °F 53.6 °F 53% 30.01 in 1.4 mi NNE 5.8 mph - N/A   Haze
10:20 AM 73.4 °F 51.8 °F 47% 30.01 in 1.6 mi NW 3.5 mph - N/A   Haze
10:50 AM 75.2 °F 50.0 °F 41% 30.01 in 1.7 mi NW 6.9 mph - N/A   Haze
11:20 AM 75.2 °F 50.0 °F 41% 29.98 in - NNW 6.9 mph - N/A   Haze
11:30 AM 77 °F 51 °F 30% 29.99 in 1 mi NW 3.5 mph - -   Haze
11:50 AM 77.0 °F 50.0 °F 39% 29.98 in - NNW 9.2 mph - N/A   Haze
12:20 PM 77.0 °F 48.2 °F 36% 29.95 in 2.2 mi NNW 8.1 mph - N/A   Haze
12:50 PM 77.0 °F 48.2 °F 36% 29.95 in - NNW 8.1 mph - N/A   Haze
1:20 PM 78.8 °F 48.2 °F 34% 29.92 in - NW 8.1 mph - N/A   Haze
1:50 PM 78.8 °F 48.2 °F 34% 29.92 in - NNW 9.2 mph - N/A   Haze
2:20 PM 78.8 °F 46.4 °F 32% 29.89 in 2.2 mi NNW 8.1 mph - N/A   Haze
2:30 PM 80 °F 47 °F 22% 29.91 in 1 mi North 4.6 mph - -   Haze
2:50 PM 78.8 °F 46.4 °F 32% 29.89 in 2.2 mi NW 8.1 mph - N/A   Haze
3:20 PM 78.8 °F 48.2 °F 34% 29.89 in 2.2 mi NW 6.9 mph - N/A   Haze
3:50 PM 78.8 °F 46.4 °F 32% 29.89 in 2.2 mi NW 6.9 mph - N/A   Haze
4:20 PM 78.8 °F 48.2 °F 34% 29.89 in 2.2 mi NNW 6.9 mph - N/A   Haze
4:50 PM 77.0 °F 48.2 °F 36% 29.89 in 2.2 mi North 6.9 mph - N/A   Haze
5:20 PM 75.2 °F 48.2 °F 38% 29.89 in 2.2 mi NNW 4.6 mph - N/A   Haze
5:30 PM 76 °F 53 °F 34% 29.91 in 1 mi Calm Calm - -   Haze
5:50 PM 75.2 °F 48.2 °F 38% 29.89 in - NNW 3.5 mph - N/A   Haze
6:20 PM 71.6 °F 50.0 °F 46% 29.89 in 1.7 mi Calm Calm - N/A   Haze
6:50 PM 69.8 °F 50.0 °F 49% 29.89 in 1.4 mi Calm Calm - N/A   Haze
7:20 PM 68.0 °F 50.0 °F 52% 29.89 in 1.2 mi Calm Calm - N/A   Haze
7:50 PM 66.2 °F 51.8 °F 60% 29.92 in 1.2 mi Calm Calm - N/A   Haze
8:20 PM 66.2 °F 51.8 °F 60% 29.92 in 1.2 mi Calm Calm - N/A   Haze
8:30 PM 65 °F 56 °F 64% 29.96 in 1 mi Calm Calm - -   Haze
8:50 PM 64.4 °F 53.6 °F 68% 29.95 in 1.1 mi Calm Calm - N/A   Haze
9:20 PM 64.4 °F 55.4 °F 73% 29.95 in 1.0 mi Calm Calm - N/A   Mist
9:50 PM 62.6 °F 57.2 °F 82% 29.95 in 0.9 mi Calm Calm - N/A   Mist
10:20 PM 62.6 °F 57.2 °F 82% 29.95 in 0.9 mi Calm Calm - N/A   Mist
10:50 PM 62.6 °F 57.2 °F 82% 29.95 in 0.9 mi Calm Calm - N/A   Mist
11:20 PM 60.8 °F 57.2 °F 88% 29.95 in 0.8 mi Calm Calm - N/A   Mist
11:30 PM 62 °F 57 °F 79% 29.96 in 1 mi Calm Calm - -   Haze
11:50 PM 60.8 °F 57.2 °F 88% 29.95 in 0.8 mi Calm Calm - N/A   Mist